Location: Bothwell
(42.3833°S, 147.0000°E)
Time: 22:42:23
(UTC+11:00)

CUTE-I - Pass Details

Date: 02 October 2022
Orbit: 810 x 823 km, 98.7° (Epoch: 30 November)

Event Time Altitude Azimuth Distance (km) Brightness Sun altitude
Rises 05:00:37 0° 67° (ENE) 3,342 ? -19.4°
Reaches altitude 10° 05:03:59 10° 89° (E) 2,422 ? -18.8°
Maximum altitude 05:06:49 15° 122° (ESE) 2,112 ? -18.3°
Drops below altitude 10° 05:09:42 10° 154° (SSE) 2,441 ? -17.8°
Sets 05:13:06 0° 176° (S) 3,385 ? -17.2°
